owner,sensor,date,latitude,longitude,vertical_datum,sea_water_practical_salinity,qcFlag 
ENP,ioos.station.NOAA.NDBC:LBSF1:1,2016-09-01T00:00:00Z,25.2140,-80.4320,1.5,24.34,1111122 
ENP,ioos.station.NOAA.NDBC:LBSF1:1,2016-09-01T02:00:00Z,25.2140,-80.4320,1.5,24.43,1111122 
ENP,ioos.station.NOAA.NDBC:LBSF1:1,2016-09-01T03:00:00Z,25.2140,-80.4320,1.5,23.58,1111122 
ENP,ioos.station.NOAA.NDBC:LBSF1:1,2016-09-01T04:00:00Z,25.2140,-80.4320,1.5,23.42,1111122 
ENP,ioos.station.NOAA.NDBC:LBSF1:1,2016-09-01T06:00:00Z,25.2140,-80.4320,1.5,23.46,1111122 
ENP,ioos.station.NOAA.NDBC:LBSF1:1,2016-09-01T07:00:00Z,25.2140,-80.4320,1.5,23.64,1111122 
ENP,ioos.station.NOAA.NDBC:LBSF1:1,2016-09-01T08:00:00Z,25.2140,-80.4320,1.5,24.02,1111122 
ENP,ioos.station.NOAA.NDBC:LBSF1:1,2016-09-01T10:00:00Z,25.2140,-80.4320,1.5,24.44,1111122 
ENP,ioos.station.NOAA.NDBC:LBSF1:1,2016-09-01T11:00:00Z,25.2140,-80.4320,1.5,24.37,1111122 
ENP,ioos.station.NOAA.NDBC:LBSF1:1,2016-09-01T12:00:00Z,25.2140,-80.4320,1.5,24.28,1111122 
ENP,ioos.station.NOAA.NDBC:LBSF1:1,2016-09-01T19:00:00Z,25.2140,-80.4320,1.5,24.18,1111122 
ENP,ioos.station.NOAA.NDBC:LBSF1:1,2016-09-02T11:00:00Z,25.2140,-80.4320,1.5,24.33,1111122 
ENP,ioos.station.NOAA.NDBC:LBSF1:1,2016-09-02T12:00:00Z,25.2140,-80.4320,1.5,24.33,1111122 
ENP,ioos.station.NOAA.NDBC:LBSF1:1,2016-09-02T13:00:00Z,25.2140,-80.4320,1.5,24.35,1111122 
ENP,ioos.station.NOAA.NDBC:LBSF1:1,2016-09-02T14:00:00Z,25.2140,-80.4320,1.5,24.36,1111122 
ENP,ioos.station.NOAA.NDBC:LBSF1:1,2016-09-02T15:00:00Z,25.2140,-80.4320,1.5,24.37,1111122 
ENP,ioos.station.NOAA.NDBC:LBSF1:1,2016-09-02T16:00:00Z,25.2140,-80.4320,1.5,24.4,1111122 
ENP,ioos.station.NOAA.NDBC:LBSF1:1,2016-09-02T17:00:00Z,25.2140,-80.4320,1.5,24.44,1111122 
ENP,ioos.station.NOAA.NDBC:LBSF1:1,2016-09-02T18:00:00Z,25.2140,-80.4320,1.5,24.47,1111122 
ENP,ioos.station.NOAA.NDBC:LBSF1:1,2016-09-02T19:00:00Z,25.2140,-80.4320,1.5,24.49,1111122 
ENP,ioos.station.NOAA.NDBC:LBSF1:1,2016-09-02T20:00:00Z,25.2140,-80.4320,1.5,24.51,1111122 
ENP,ioos.station.NOAA.NDBC:LBSF1:1,2016-09-02T21:00:00Z,25.2140,-80.4320,1.5,24.51,1111122 
ENP,ioos.station.NOAA.NDBC:LBSF1:1,2016-09-02T22:00:00Z,25.2140,-80.4320,1.5,24.53,1111122 
ENP,ioos.station.NOAA.NDBC:LBSF1:1,2016-09-02T23:00:00Z,25.2140,-80.4320,1.5,24.53,1111122 
ENP,ioos.station.NOAA.NDBC:LBSF1:1,2016-09-03T00:00:00Z,25.2140,-80.4320,1.5,24.53,1111122 
ENP,ioos.station.NOAA.NDBC:LBSF1:1,2016-09-03T02:00:00Z,25.2140,-80.4320,1.5,24.39,1111122 
ENP,ioos.station.NOAA.NDBC:LBSF1:1,2016-09-03T03:00:00Z,25.2140,-80.4320,1.5,24.24,1111122 
ENP,ioos.station.NOAA.NDBC:LBSF1:1,2016-09-03T04:00:00Z,25.2140,-80.4320,1.5,24.16,1111122 
ENP,ioos.station.NOAA.NDBC:LBSF1:1,2016-09-03T06:00:00Z,25.2140,-80.4320,1.5,24.02,1111122 
ENP,ioos.station.NOAA.NDBC:LBSF1:1,2016-09-03T07:00:00Z,25.2140,-80.4320,1.5,23.9,1111122 
ENP,ioos.station.NOAA.NDBC:LBSF1:1,2016-09-03T08:00:00Z,25.2140,-80.4320,1.5,23.83,1111122 
ENP,ioos.station.NOAA.NDBC:LBSF1:1,2016-09-03T10:00:00Z,25.2140,-80.4320,1.5,23.85,1111122 
ENP,ioos.station.NOAA.NDBC:LBSF1:1,2016-09-03T11:00:00Z,25.2140,-80.4320,1.5,23.89,1111122 
ENP,ioos.station.NOAA.NDBC:LBSF1:1,2016-09-03T12:00:00Z,25.2140,-80.4320,1.5,23.89,1111122 
ENP,ioos.station.NOAA.NDBC:LBSF1:1,2016-09-03T13:00:00Z,25.2140,-80.4320,1.5,23.89,1111122 
ENP,ioos.station.NOAA.NDBC:LBSF1:1,2016-09-03T14:00:00Z,25.2140,-80.4320,1.5,23.91,1111122 
ENP,ioos.station.NOAA.NDBC:LBSF1:1,2016-09-03T15:00:00Z,25.2140,-80.4320,1.5,23.93,1111122 
ENP,ioos.station.NOAA.NDBC:LBSF1:1,2016-09-03T16:00:00Z,25.2140,-80.4320,1.5,23.95,1111122 
ENP,ioos.station.NOAA.NDBC:LBSF1:1,2016-09-03T17:00:00Z,25.2140,-80.4320,1.5,23.97,1111122 
ENP,ioos.station.NOAA.NDBC:LBSF1:1,2016-09-03T18:00:00Z,25.2140,-80.4320,1.5,24.0,1111122 
ENP,ioos.station.NOAA.NDBC:LBSF1:1,2016-09-03T19:00:00Z,25.2140,-80.4320,1.5,24.02,1111122 
ENP,ioos.station.NOAA.NDBC:LBSF1:1,2016-09-03T20:00:00Z,25.2140,-80.4320,1.5,24.04,1111122 
ENP,ioos.station.NOAA.NDBC:LBSF1:1,2016-09-03T21:00:00Z,25.2140,-80.4320,1.5,24.09,1111122 
ENP,ioos.station.NOAA.NDBC:LBSF1:1,2016-09-03T22:00:00Z,25.2140,-80.4320,1.5,24.14,1111122 
ENP,ioos.station.NOAA.NDBC:LBSF1:1,2016-09-03T23:00:00Z,25.2140,-80.4320,1.5,24.21,1111122 
ENP,ioos.station.NOAA.NDBC:LBSF1:1,2016-09-04T00:00:00Z,25.2140,-80.4320,1.5,24.28,1111122 
ENP,ioos.station.NOAA.NDBC:LBSF1:1,2016-09-04T02:00:00Z,25.2140,-80.4320,1.5,24.53,1111122 
ENP,ioos.station.NOAA.NDBC:LBSF1:1,2016-09-04T03:00:00Z,25.2140,-80.4320,1.5,24.65,1111122 
ENP,ioos.station.NOAA.NDBC:LBSF1:1,2016-09-04T04:00:00Z,25.2140,-80.4320,1.5,24.74,1111122 
ENP,ioos.station.NOAA.NDBC:LBSF1:1,2016-09-04T06:00:00Z,25.2140,-80.4320,1.5,24.65,1111122 
ENP,ioos.station.NOAA.NDBC:LBSF1:1,2016-09-04T07:00:00Z,25.2140,-80.4320,1.5,24.4,1111122 
ENP,ioos.station.NOAA.NDBC:LBSF1:1,2016-09-04T08:00:00Z,25.2140,-80.4320,1.5,24.38,1111122 
ENP,ioos.station.NOAA.NDBC:LBSF1:1,2016-09-04T09:00:00Z,25.2140,-80.4320,1.5,24.51,1111122 
ENP,ioos.station.NOAA.NDBC:LBSF1:1,2016-09-04T11:00:00Z,25.2140,-80.4320,1.5,24.94,1111122 
ENP,ioos.station.NOAA.NDBC:LBSF1:1,2016-09-04T12:00:00Z,25.2140,-80.4320,1.5,25.16,1111122 
ENP,ioos.station.NOAA.NDBC:LBSF1:1,2016-09-04T13:00:00Z,25.2140,-80.4320,1.5,25.27,1111122 
ENP,ioos.station.NOAA.NDBC:LBSF1:1,2016-09-04T14:00:00Z,25.2140,-80.4320,1.5,25.35,1111122 
ENP,ioos.station.NOAA.NDBC:LBSF1:1,2016-09-04T15:00:00Z,25.2140,-80.4320,1.5,25.44,1111122 
ENP,ioos.station.NOAA.NDBC:LBSF1:1,2016-09-04T16:00:00Z,25.2140,-80.4320,1.5,25.51,1111122 
ENP,ioos.station.NOAA.NDBC:LBSF1:1,2016-09-04T17:00:00Z,25.2140,-80.4320,1.5,25.54,1111122 
ENP,ioos.station.NOAA.NDBC:LBSF1:1,2016-09-04T18:00:00Z,25.2140,-80.4320,1.5,25.57,1111122 
ENP,ioos.station.NOAA.NDBC:LBSF1:1,2016-09-04T19:00:00Z,25.2140,-80.4320,1.5,25.59,1111122 
ENP,ioos.station.NOAA.NDBC:LBSF1:1,2016-09-04T20:00:00Z,25.2140,-80.4320,1.5,25.61,1111122 
ENP,ioos.station.NOAA.NDBC:LBSF1:1,2016-09-04T21:00:00Z,25.2140,-80.4320,1.5,25.6,1111122 
ENP,ioos.station.NOAA.NDBC:LBSF1:1,2016-09-04T22:00:00Z,25.2140,-80.4320,1.5,25.55,1111122 
ENP,ioos.station.NOAA.NDBC:LBSF1:1,2016-09-04T23:00:00Z,25.2140,-80.4320,1.5,25.52,1111122 
ENP,ioos.station.NOAA.NDBC:LBSF1:1,2016-09-05T00:00:00Z,25.2140,-80.4320,1.5,25.51,1111122 
ENP,ioos.station.NOAA.NDBC:LBSF1:1,2016-09-05T02:00:00Z,25.2140,-80.4320,1.5,25.46,1111122 
ENP,ioos.station.NOAA.NDBC:LBSF1:1,2016-09-05T03:00:00Z,25.2140,-80.4320,1.5,25.42,1111122 
ENP,ioos.station.NOAA.NDBC:LBSF1:1,2016-09-05T05:00:00Z,25.2140,-80.4320,1.5,25.39,1111122 
ENP,ioos.station.NOAA.NDBC:LBSF1:1,2016-09-05T06:00:00Z,25.2140,-80.4320,1.5,25.39,1111122 
ENP,ioos.station.NOAA.NDBC:LBSF1:1,2016-09-05T07:00:00Z,25.2140,-80.4320,1.5,25.39,1111122 
ENP,ioos.station.NOAA.NDBC:LBSF1:1,2016-09-05T08:00:00Z,25.2140,-80.4320,1.5,25.39,1111122 
ENP,ioos.station.NOAA.NDBC:LBSF1:1,2016-09-05T10:00:00Z,25.2140,-80.4320,1.5,25.41,1111122 
ENP,ioos.station.NOAA.NDBC:LBSF1:1,2016-09-05T11:00:00Z,25.2140,-80.4320,1.5,25.42,1111122 
ENP,ioos.station.NOAA.NDBC:LBSF1:1,2016-09-05T12:00:00Z,25.2140,-80.4320,1.5,25.42,1111122 
ENP,ioos.station.NOAA.NDBC:LBSF1:1,2016-09-05T13:00:00Z,25.2140,-80.4320,1.5,25.34,1111122 
ENP,ioos.station.NOAA.NDBC:LBSF1:1,2016-09-05T14:00:00Z,25.2140,-80.4320,1.5,25.2,1111122 
ENP,ioos.station.NOAA.NDBC:LBSF1:1,2016-09-05T15:00:00Z,25.2140,-80.4320,1.5,25.23,1111122 
ENP,ioos.station.NOAA.NDBC:LBSF1:1,2016-09-05T16:00:00Z,25.2140,-80.4320,1.5,25.22,1111122 
ENP,ioos.station.NOAA.NDBC:LBSF1:1,2016-09-05T17:00:00Z,25.2140,-80.4320,1.5,24.85,1111122 
ENP,ioos.station.NOAA.NDBC:LBSF1:1,2016-09-05T18:00:00Z,25.2140,-80.4320,1.5,24.77,1111122 
ENP,ioos.station.NOAA.NDBC:LBSF1:1,2016-09-05T19:00:00Z,25.2140,-80.4320,1.5,24.72,1111122 
ENP,ioos.station.NOAA.NDBC:LBSF1:1,2016-09-05T20:00:00Z,25.2140,-80.4320,1.5,24.71,1111122 
ENP,ioos.station.NOAA.NDBC:LBSF1:1,2016-09-05T21:00:00Z,25.2140,-80.4320,1.5,24.68,1111122 
ENP,ioos.station.NOAA.NDBC:LBSF1:1,2016-09-05T22:00:00Z,25.2140,-80.4320,1.5,24.66,1111122 
ENP,ioos.station.NOAA.NDBC:LBSF1:1,2016-09-05T23:00:00Z,25.2140,-80.4320,1.5,24.58,1111122 
ENP,ioos.station.NOAA.NDBC:LBSF1:1,2016-09-06T00:00:00Z,25.2140,-80.4320,1.5,24.35,1111122 
ENP,ioos.station.NOAA.NDBC:LBSF1:1,2016-09-06T02:00:00Z,25.2140,-80.4320,1.5,23.7,1111122 
ENP,ioos.station.NOAA.NDBC:LBSF1:1,2016-09-06T03:00:00Z,25.2140,-80.4320,1.5,22.81,1111122 
ENP,ioos.station.NOAA.NDBC:LBSF1:1,2016-09-06T05:00:00Z,25.2140,-80.4320,1.5,23.59,1111122 
ENP,ioos.station.NOAA.NDBC:LBSF1:1,2016-09-06T06:00:00Z,25.2140,-80.4320,1.5,24.04,1111122 
ENP,ioos.station.NOAA.NDBC:LBSF1:1,2016-09-06T07:00:00Z,25.2140,-80.4320,1.5,24.21,1111122 
ENP,ioos.station.NOAA.NDBC:LBSF1:1,2016-09-06T08:00:00Z,25.2140,-80.4320,1.5,24.28,1111122 
ENP,ioos.station.NOAA.NDBC:LBSF1:1,2016-09-06T09:00:00Z,25.2140,-80.4320,1.5,24.37,1111122 
ENP,ioos.station.NOAA.NDBC:LBSF1:1,2016-09-06T10:00:00Z,25.2140,-80.4320,1.5,24.42,1111122 
ENP,ioos.station.NOAA.NDBC:LBSF1:1,2016-09-06T11:00:00Z,25.2140,-80.4320,1.5,24.44,1111122 
ENP,ioos.station.NOAA.NDBC:LBSF1:1,2016-09-06T12:00:00Z,25.2140,-80.4320,1.5,24.84,1111122 
ENP,ioos.station.NOAA.NDBC:LBSF1:1,2016-09-06T13:00:00Z,25.2140,-80.4320,1.5,25.58,1111122 
ENP,ioos.station.NOAA.NDBC:LBSF1:1,2016-09-06T14:00:00Z,25.2140,-80.4320,1.5,25.35,1111122 
ENP,ioos.station.NOAA.NDBC:LBSF1:1,2016-09-06T15:00:00Z,25.2140,-80.4320,1.5,25.47,1111122 
ENP,ioos.station.NOAA.NDBC:LBSF1:1,2016-09-06T16:00:00Z,25.2140,-80.4320,1.5,25.49,1111122 
ENP,ioos.station.NOAA.NDBC:LBSF1:1,2016-09-06T17:00:00Z,25.2140,-80.4320,1.5,25.34,1111122 
ENP,ioos.station.NOAA.NDBC:LBSF1:1,2016-09-06T18:00:00Z,25.2140,-80.4320,1.5,25.32,1111122 
ENP,ioos.station.NOAA.NDBC:LBSF1:1,2016-09-06T19:00:00Z,25.2140,-80.4320,1.5,25.35,1111122 
ENP,ioos.station.NOAA.NDBC:LBSF1:1,2016-09-06T20:00:00Z,25.2140,-80.4320,1.5,25.29,1111122 
ENP,ioos.station.NOAA.NDBC:LBSF1:1,2016-09-06T21:00:00Z,25.2140,-80.4320,1.5,25.22,1111122 
ENP,ioos.station.NOAA.NDBC:LBSF1:1,2016-09-06T22:00:00Z,25.2140,-80.4320,1.5,25.22,1111122 
ENP,ioos.station.NOAA.NDBC:LBSF1:1,2016-09-06T23:00:00Z,25.2140,-80.4320,1.5,25.13,1111122 
ENP,ioos.station.NOAA.NDBC:LBSF1:1,2016-09-07T00:00:00Z,25.2140,-80.4320,1.5,25.13,1111122 
ENP,ioos.station.NOAA.NDBC:LBSF1:1,2016-09-07T01:00:00Z,25.2140,-80.4320,1.5,25.13,1111122 
ENP,ioos.station.NOAA.NDBC:LBSF1:1,2016-09-07T03:00:00Z,25.2140,-80.4320,1.5,25.06,1111122 
ENP,ioos.station.NOAA.NDBC:LBSF1:1,2016-09-07T05:00:00Z,25.2140,-80.4320,1.5,25.01,1111122 
ENP,ioos.station.NOAA.NDBC:LBSF1:1,2016-09-07T06:00:00Z,25.2140,-80.4320,1.5,24.99,1111122 
ENP,ioos.station.NOAA.NDBC:LBSF1:1,2016-09-07T07:00:00Z,25.2140,-80.4320,1.5,24.97,1111122 
ENP,ioos.station.NOAA.NDBC:LBSF1:1,2016-09-07T08:00:00Z,25.2140,-80.4320,1.5,24.97,1111122 
ENP,ioos.station.NOAA.NDBC:LBSF1:1,2016-09-07T10:00:00Z,25.2140,-80.4320,1.5,24.98,1111122 
ENP,ioos.station.NOAA.NDBC:LBSF1:1,2016-09-07T11:00:00Z,25.2140,-80.4320,1.5,25.0,1111122 
ENP,ioos.station.NOAA.NDBC:LBSF1:1,2016-09-07T12:00:00Z,25.2140,-80.4320,1.5,25.0,1111122 
ENP,ioos.station.NOAA.NDBC:LBSF1:1,2016-09-07T13:00:00Z,25.2140,-80.4320,1.5,25.01,1111122 
ENP,ioos.station.NOAA.NDBC:LBSF1:1,2016-09-07T14:00:00Z,25.2140,-80.4320,1.5,25.02,1111122 
ENP,ioos.station.NOAA.NDBC:LBSF1:1,2016-09-07T16:00:00Z,25.2140,-80.4320,1.5,25.01,1111122 
ENP,ioos.station.NOAA.NDBC:LBSF1:1,2016-09-07T18:00:00Z,25.2140,-80.4320,1.5,24.47,1111122 
ENP,ioos.station.NOAA.NDBC:LBSF1:1,2016-09-07T19:00:00Z,25.2140,-80.4320,1.5,24.72,1111122 
ENP,ioos.station.NOAA.NDBC:LBSF1:1,2016-09-07T20:00:00Z,25.2140,-80.4320,1.5,24.68,1111122 
ENP,ioos.station.NOAA.NDBC:LBSF1:1,2016-09-07T21:00:00Z,25.2140,-80.4320,1.5,24.67,1111122 
ENP,ioos.station.NOAA.NDBC:LBSF1:1,2016-09-07T22:00:00Z,25.2140,-80.4320,1.5,24.62,1111122 
ENP,ioos.station.NOAA.NDBC:LBSF1:1,2016-09-07T23:00:00Z,25.2140,-80.4320,1.5,24.56,1111122 
ENP,ioos.station.NOAA.NDBC:LBSF1:1,2016-09-08T00:00:00Z,25.2140,-80.4320,1.5,24.46,1111122 
ENP,ioos.station.NOAA.NDBC:LBSF1:1,2016-09-08T02:00:00Z,25.2140,-80.4320,1.5,24.39,1111122 
ENP,ioos.station.NOAA.NDBC:LBSF1:1,2016-09-08T03:00:00Z,25.2140,-80.4320,1.5,24.4,1111122 
ENP,ioos.station.NOAA.NDBC:LBSF1:1,2016-09-08T05:00:00Z,25.2140,-80.4320,1.5,24.46,1111122 
ENP,ioos.station.NOAA.NDBC:LBSF1:1,2016-09-08T06:00:00Z,25.2140,-80.4320,1.5,24.42,1111122 
ENP,ioos.station.NOAA.NDBC:LBSF1:1,2016-09-08T07:00:00Z,25.2140,-80.4320,1.5,24.51,1111122 
ENP,ioos.station.NOAA.NDBC:LBSF1:1,2016-09-08T08:00:00Z,25.2140,-80.4320,1.5,24.49,1111122 
ENP,ioos.station.NOAA.NDBC:LBSF1:1,2016-09-08T09:00:00Z,25.2140,-80.4320,1.5,24.41,1111122 
ENP,ioos.station.NOAA.NDBC:LBSF1:1,2016-09-08T10:00:00Z,25.2140,-80.4320,1.5,24.42,1111122 
ENP,ioos.station.NOAA.NDBC:LBSF1:1,2016-09-08T11:00:00Z,25.2140,-80.4320,1.5,24.4,1111122 
ENP,ioos.station.NOAA.NDBC:LBSF1:1,2016-09-08T12:00:00Z,25.2140,-80.4320,1.5,24.65,1111122 
ENP,ioos.station.NOAA.NDBC:LBSF1:1,2016-09-08T13:00:00Z,25.2140,-80.4320,1.5,24.33,1111122 
ENP,ioos.station.NOAA.NDBC:LBSF1:1,2016-09-08T14:00:00Z,25.2140,-80.4320,1.5,24.5,1111122 
ENP,ioos.station.NOAA.NDBC:LBSF1:1,2016-09-08T15:00:00Z,25.2140,-80.4320,1.5,24.55,1111122 
ENP,ioos.station.NOAA.NDBC:LBSF1:1,2016-09-08T16:00:00Z,25.2140,-80.4320,1.5,24.31,1111122 
ENP,ioos.station.NOAA.NDBC:LBSF1:1,2016-09-08T17:00:00Z,25.2140,-80.4320,1.5,24.28,1111122 
ENP,ioos.station.NOAA.NDBC:LBSF1:1,2016-09-08T18:00:00Z,25.2140,-80.4320,1.5,24.28,1111122 
ENP,ioos.station.NOAA.NDBC:LBSF1:1,2016-09-08T19:00:00Z,25.2140,-80.4320,1.5,24.27,1111122 
ENP,ioos.station.NOAA.NDBC:LBSF1:1,2016-09-08T20:00:00Z,25.2140,-80.4320,1.5,24.29,1111122 
ENP,ioos.station.NOAA.NDBC:LBSF1:1,2016-09-08T21:00:00Z,25.2140,-80.4320,1.5,24.33,1111122 
ENP,ioos.station.NOAA.NDBC:LBSF1:1,2016-09-08T22:00:00Z,25.2140,-80.4320,1.5,24.37,1111122 
ENP,ioos.station.NOAA.NDBC:LBSF1:1,2016-09-08T23:00:00Z,25.2140,-80.4320,1.5,24.29,1111122 
ENP,ioos.station.NOAA.NDBC:LBSF1:1,2016-09-09T00:00:00Z,25.2140,-80.4320,1.5,24.34,1111122 
ENP,ioos.station.NOAA.NDBC:LBSF1:1,2016-09-09T03:00:00Z,25.2140,-80.4320,1.5,24.16,1111122 
ENP,ioos.station.NOAA.NDBC:LBSF1:1,2016-09-09T05:00:00Z,25.2140,-80.4320,1.5,24.26,1111122 
ENP,ioos.station.NOAA.NDBC:LBSF1:1,2016-09-09T06:00:00Z,25.2140,-80.4320,1.5,24.23,1111122 
ENP,ioos.station.NOAA.NDBC:LBSF1:1,2016-09-09T07:00:00Z,25.2140,-80.4320,1.5,24.13,1111122 
ENP,ioos.station.NOAA.NDBC:LBSF1:1,2016-09-09T08:00:00Z,25.2140,-80.4320,1.5,24.18,1111122 
ENP,ioos.station.NOAA.NDBC:LBSF1:1,2016-09-09T09:00:00Z,25.2140,-80.4320,1.5,24.25,1111122 
ENP,ioos.station.NOAA.NDBC:LBSF1:1,2016-09-09T10:00:00Z,25.2140,-80.4320,1.5,24.25,1111122 
ENP,ioos.station.NOAA.NDBC:LBSF1:1,2016-09-09T11:00:00Z,25.2140,-80.4320,1.5,24.3,1111122 
ENP,ioos.station.NOAA.NDBC:LBSF1:1,2016-09-09T12:00:00Z,25.2140,-80.4320,1.5,24.73,1111122 
ENP,ioos.station.NOAA.NDBC:LBSF1:1,2016-09-09T13:00:00Z,25.2140,-80.4320,1.5,24.54,1111122 
ENP,ioos.station.NOAA.NDBC:LBSF1:1,2016-09-09T14:00:00Z,25.2140,-80.4320,1.5,24.47,1111122 
ENP,ioos.station.NOAA.NDBC:LBSF1:1,2016-09-09T15:00:00Z,25.2140,-80.4320,1.5,24.73,1111122 
ENP,ioos.station.NOAA.NDBC:LBSF1:1,2016-09-09T16:00:00Z,25.2140,-80.4320,1.5,24.84,1111122 
ENP,ioos.station.NOAA.NDBC:LBSF1:1,2016-09-09T17:00:00Z,25.2140,-80.4320,1.5,24.64,1111122 
ENP,ioos.station.NOAA.NDBC:LBSF1:1,2016-09-09T18:00:00Z,25.2140,-80.4320,1.5,24.73,1111122 
ENP,ioos.station.NOAA.NDBC:LBSF1:1,2016-09-09T19:00:00Z,25.2140,-80.4320,1.5,24.37,1111122 
ENP,ioos.station.NOAA.NDBC:LBSF1:1,2016-09-09T20:00:00Z,25.2140,-80.4320,1.5,24.42,1111122 
ENP,ioos.station.NOAA.NDBC:LBSF1:1,2016-09-09T21:00:00Z,25.2140,-80.4320,1.5,24.71,1111122 
ENP,ioos.station.NOAA.NDBC:LBSF1:1,2016-09-09T22:00:00Z,25.2140,-80.4320,1.5,24.65,1111122 
ENP,ioos.station.NOAA.NDBC:LBSF1:1,2016-09-09T23:00:00Z,25.2140,-80.4320,1.5,24.5,1111122 
ENP,ioos.station.NOAA.NDBC:LBSF1:1,2016-09-10T00:00:00Z,25.2140,-80.4320,1.5,24.44,1111122 
ENP,ioos.station.NOAA.NDBC:LBSF1:1,2016-09-10T03:00:00Z,25.2140,-80.4320,1.5,24.43,1111122 
ENP,ioos.station.NOAA.NDBC:LBSF1:1,2016-09-10T06:00:00Z,25.2140,-80.4320,1.5,24.38,1111122 
ENP,ioos.station.NOAA.NDBC:LBSF1:1,2016-09-10T07:00:00Z,25.2140,-80.4320,1.5,24.3,1111122 
ENP,ioos.station.NOAA.NDBC:LBSF1:1,2016-09-10T08:00:00Z,25.2140,-80.4320,1.5,24.14,1111122 
ENP,ioos.station.NOAA.NDBC:LBSF1:1,2016-09-10T10:00:00Z,25.2140,-80.4320,1.5,24.08,1111122 
ENP,ioos.station.NOAA.NDBC:LBSF1:1,2016-09-10T11:00:00Z,25.2140,-80.4320,1.5,23.96,1111122 
ENP,ioos.station.NOAA.NDBC:LBSF1:1,2016-09-10T12:00:00Z,25.2140,-80.4320,1.5,23.93,1111122 
ENP,ioos.station.NOAA.NDBC:LBSF1:1,2016-09-10T13:00:00Z,25.2140,-80.4320,1.5,23.83,1111122 
ENP,ioos.station.NOAA.NDBC:LBSF1:1,2016-09-10T14:00:00Z,25.2140,-80.4320,1.5,23.95,1111122 
ENP,ioos.station.NOAA.NDBC:LBSF1:1,2016-09-10T15:00:00Z,25.2140,-80.4320,1.5,23.95,1111122 
ENP,ioos.station.NOAA.NDBC:LBSF1:1,2016-09-10T16:00:00Z,25.2140,-80.4320,1.5,24.16,1111122 
ENP,ioos.station.NOAA.NDBC:LBSF1:1,2016-09-10T17:00:00Z,25.2140,-80.4320,1.5,23.9,1111122 
ENP,ioos.station.NOAA.NDBC:LBSF1:1,2016-09-10T18:00:00Z,25.2140,-80.4320,1.5,23.88,1111122 
ENP,ioos.station.NOAA.NDBC:LBSF1:1,2016-09-10T19:00:00Z,25.2140,-80.4320,1.5,23.78,1111122 
ENP,ioos.station.NOAA.NDBC:LBSF1:1,2016-09-10T20:00:00Z,25.2140,-80.4320,1.5,23.89,1111122 
ENP,ioos.station.NOAA.NDBC:LBSF1:1,2016-09-10T21:00:00Z,25.2140,-80.4320,1.5,23.88,1111122 
ENP,ioos.station.NOAA.NDBC:LBSF1:1,2016-09-10T22:00:00Z,25.2140,-80.4320,1.5,23.83,1111122 
ENP,ioos.station.NOAA.NDBC:LBSF1:1,2016-09-10T23:00:00Z,25.2140,-80.4320,1.5,23.72,1111122 
ENP,ioos.station.NOAA.NDBC:LBSF1:1,2016-09-11T00:00:00Z,25.2140,-80.4320,1.5,23.89,1111122 
ENP,ioos.station.NOAA.NDBC:LBSF1:1,2016-09-11T03:00:00Z,25.2140,-80.4320,1.5,23.82,1111122 
ENP,ioos.station.NOAA.NDBC:LBSF1:1,2016-09-11T05:00:00Z,25.2140,-80.4320,1.5,23.76,1111122 
ENP,ioos.station.NOAA.NDBC:LBSF1:1,2016-09-11T06:00:00Z,25.2140,-80.4320,1.5,23.76,1111122 
ENP,ioos.station.NOAA.NDBC:LBSF1:1,2016-09-11T07:00:00Z,25.2140,-80.4320,1.5,23.74,1111122 
ENP,ioos.station.NOAA.NDBC:LBSF1:1,2016-09-11T08:00:00Z,25.2140,-80.4320,1.5,23.73,1111122 
ENP,ioos.station.NOAA.NDBC:LBSF1:1,2016-09-11T09:00:00Z,25.2140,-80.4320,1.5,23.77,1111122 
ENP,ioos.station.NOAA.NDBC:LBSF1:1,2016-09-11T11:00:00Z,25.2140,-80.4320,1.5,23.13,1111122 
ENP,ioos.station.NOAA.NDBC:LBSF1:1,2016-09-11T12:00:00Z,25.2140,-80.4320,1.5,22.93,1111122 
ENP,ioos.station.NOAA.NDBC:LBSF1:1,2016-09-11T13:00:00Z,25.2140,-80.4320,1.5,22.61,1111122 
ENP,ioos.station.NOAA.NDBC:LBSF1:1,2016-09-11T14:00:00Z,25.2140,-80.4320,1.5,23.19,1111122 
ENP,ioos.station.NOAA.NDBC:LBSF1:1,2016-09-11T15:00:00Z,25.2140,-80.4320,1.5,23.66,1111122 
ENP,ioos.station.NOAA.NDBC:LBSF1:1,2016-09-11T16:00:00Z,25.2140,-80.4320,1.5,23.45,1111122 
ENP,ioos.station.NOAA.NDBC:LBSF1:1,2016-09-11T17:00:00Z,25.2140,-80.4320,1.5,23.09,1111122 
ENP,ioos.station.NOAA.NDBC:LBSF1:1,2016-09-11T18:00:00Z,25.2140,-80.4320,1.5,23.16,1111122 
ENP,ioos.station.NOAA.NDBC:LBSF1:1,2016-09-11T19:00:00Z,25.2140,-80.4320,1.5,23.21,1111122 
ENP,ioos.station.NOAA.NDBC:LBSF1:1,2016-09-11T20:00:00Z,25.2140,-80.4320,1.5,22.89,1111122 
ENP,ioos.station.NOAA.NDBC:LBSF1:1,2016-09-11T21:00:00Z,25.2140,-80.4320,1.5,22.91,1111122 
ENP,ioos.station.NOAA.NDBC:LBSF1:1,2016-09-11T22:00:00Z,25.2140,-80.4320,1.5,22.93,1111122 
ENP,ioos.station.NOAA.NDBC:LBSF1:1,2016-09-11T23:00:00Z,25.2140,-80.4320,1.5,22.85,1111122 
ENP,ioos.station.NOAA.NDBC:LBSF1:1,2016-09-12T00:00:00Z,25.2140,-80.4320,1.5,23.11,1111122 
ENP,ioos.station.NOAA.NDBC:LBSF1:1,2016-09-12T02:00:00Z,25.2140,-80.4320,1.5,23.1,1111122 
ENP,ioos.station.NOAA.NDBC:LBSF1:1,2016-09-12T03:00:00Z,25.2140,-80.4320,1.5,23.07,1111122 
ENP,ioos.station.NOAA.NDBC:LBSF1:1,2016-09-12T05:00:00Z,25.2140,-80.4320,1.5,23.23,1111122 
ENP,ioos.station.NOAA.NDBC:LBSF1:1,2016-09-12T06:00:00Z,25.2140,-80.4320,1.5,23.23,1111122 
ENP,ioos.station.NOAA.NDBC:LBSF1:1,2016-09-12T07:00:00Z,25.2140,-80.4320,1.5,23.17,1111122 
ENP,ioos.station.NOAA.NDBC:LBSF1:1,2016-09-12T08:00:00Z,25.2140,-80.4320,1.5,23.3,1111122 
ENP,ioos.station.NOAA.NDBC:LBSF1:1,2016-09-12T10:00:00Z,25.2140,-80.4320,1.5,23.13,1111122 
ENP,ioos.station.NOAA.NDBC:LBSF1:1,2016-09-12T11:00:00Z,25.2140,-80.4320,1.5,22.97,1111122 
ENP,ioos.station.NOAA.NDBC:LBSF1:1,2016-09-12T12:00:00Z,25.2140,-80.4320,1.5,21.32,1111122 
ENP,ioos.station.NOAA.NDBC:LBSF1:1,2016-09-12T13:00:00Z,25.2140,-80.4320,1.5,21.04,1111122 
ENP,ioos.station.NOAA.NDBC:LBSF1:1,2016-09-12T14:00:00Z,25.2140,-80.4320,1.5,20.6,1111122 
ENP,ioos.station.NOAA.NDBC:LBSF1:1,2016-09-12T15:00:00Z,25.2140,-80.4320,1.5,23.21,1111122 
ENP,ioos.station.NOAA.NDBC:LBSF1:1,2016-09-12T16:00:00Z,25.2140,-80.4320,1.5,24.01,1111122 
ENP,ioos.station.NOAA.NDBC:LBSF1:1,2016-09-12T17:00:00Z,25.2140,-80.4320,1.5,23.99,1111122 
ENP,ioos.station.NOAA.NDBC:LBSF1:1,2016-09-12T18:00:00Z,25.2140,-80.4320,1.5,24.34,1111122 
ENP,ioos.station.NOAA.NDBC:LBSF1:1,2016-09-12T19:00:00Z,25.2140,-80.4320,1.5,24.38,1111122 
ENP,ioos.station.NOAA.NDBC:LBSF1:1,2016-09-12T20:00:00Z,25.2140,-80.4320,1.5,24.42,1111122 
ENP,ioos.station.NOAA.NDBC:LBSF1:1,2016-09-12T21:00:00Z,25.2140,-80.4320,1.5,24.12,1111122 
ENP,ioos.station.NOAA.NDBC:LBSF1:1,2016-09-12T22:00:00Z,25.2140,-80.4320,1.5,23.95,1111122 
ENP,ioos.station.NOAA.NDBC:LBSF1:1,2016-09-12T23:00:00Z,25.2140,-80.4320,1.5,23.64,1111122 
ENP,ioos.station.NOAA.NDBC:LBSF1:1,2016-09-13T00:00:00Z,25.2140,-80.4320,1.5,23.16,1111122 
ENP,ioos.station.NOAA.NDBC:LBSF1:1,2016-09-13T02:00:00Z,25.2140,-80.4320,1.5,23.85,1111122 
ENP,ioos.station.NOAA.NDBC:LBSF1:1,2016-09-13T03:00:00Z,25.2140,-80.4320,1.5,23.23,1111122 
ENP,ioos.station.NOAA.NDBC:LBSF1:1,2016-09-13T05:00:00Z,25.2140,-80.4320,1.5,22.27,1111122 
ENP,ioos.station.NOAA.NDBC:LBSF1:1,2016-09-13T06:00:00Z,25.2140,-80.4320,1.5,22.37,1111122 
ENP,ioos.station.NOAA.NDBC:LBSF1:1,2016-09-13T07:00:00Z,25.2140,-80.4320,1.5,22.34,1111122 
ENP,ioos.station.NOAA.NDBC:LBSF1:1,2016-09-13T08:00:00Z,25.2140,-80.4320,1.5,22.36,1111122 
ENP,ioos.station.NOAA.NDBC:LBSF1:1,2016-09-13T09:00:00Z,25.2140,-80.4320,1.5,22.32,1111122 
ENP,ioos.station.NOAA.NDBC:LBSF1:1,2016-09-13T10:00:00Z,25.2140,-80.4320,1.5,22.47,1111122 
ENP,ioos.station.NOAA.NDBC:LBSF1:1,2016-09-13T11:00:00Z,25.2140,-80.4320,1.5,22.41,1111122 
ENP,ioos.station.NOAA.NDBC:LBSF1:1,2016-09-13T12:00:00Z,25.2140,-80.4320,1.5,21.88,1111122 
ENP,ioos.station.NOAA.NDBC:LBSF1:1,2016-09-13T13:00:00Z,25.2140,-80.4320,1.5,20.9,1111122 
ENP,ioos.station.NOAA.NDBC:LBSF1:1,2016-09-13T14:00:00Z,25.2140,-80.4320,1.5,20.96,1111122 
ENP,ioos.station.NOAA.NDBC:LBSF1:1,2016-09-13T15:00:00Z,25.2140,-80.4320,1.5,20.54,1111122 
ENP,ioos.station.NOAA.NDBC:LBSF1:1,2016-09-13T16:00:00Z,25.2140,-80.4320,1.5,20.86,1111122 
ENP,ioos.station.NOAA.NDBC:LBSF1:1,2016-09-13T17:00:00Z,25.2140,-80.4320,1.5,21.31,1111122 
ENP,ioos.station.NOAA.NDBC:LBSF1:1,2016-09-13T18:00:00Z,25.2140,-80.4320,1.5,20.82,1111122 
ENP,ioos.station.NOAA.NDBC:LBSF1:1,2016-09-13T19:00:00Z,25.2140,-80.4320,1.5,20.61,1111122 
ENP,ioos.station.NOAA.NDBC:LBSF1:1,2016-09-13T20:00:00Z,25.2140,-80.4320,1.5,20.59,1111122 
ENP,ioos.station.NOAA.NDBC:LBSF1:1,2016-09-13T21:00:00Z,25.2140,-80.4320,1.5,20.63,1111122 
ENP,ioos.station.NOAA.NDBC:LBSF1:1,2016-09-13T22:00:00Z,25.2140,-80.4320,1.5,20.79,1111122 
ENP,ioos.station.NOAA.NDBC:LBSF1:1,2016-09-13T23:00:00Z,25.2140,-80.4320,1.5,20.83,1111122 
ENP,ioos.station.NOAA.NDBC:LBSF1:1,2016-09-14T00:00:00Z,25.2140,-80.4320,1.5,20.76,1111122 
ENP,ioos.station.NOAA.NDBC:LBSF1:1,2016-09-14T01:00:00Z,25.2140,-80.4320,1.5,20.76,1111122 
ENP,ioos.station.NOAA.NDBC:LBSF1:1,2016-09-14T03:00:00Z,25.2140,-80.4320,1.5,20.87,1111122 
ENP,ioos.station.NOAA.NDBC:LBSF1:1,2016-09-14T04:00:00Z,25.2140,-80.4320,1.5,20.95,1111122 
ENP,ioos.station.NOAA.NDBC:LBSF1:1,2016-09-14T06:00:00Z,25.2140,-80.4320,1.5,20.94,1111122 
ENP,ioos.station.NOAA.NDBC:LBSF1:1,2016-09-14T07:00:00Z,25.2140,-80.4320,1.5,20.94,1111122 
ENP,ioos.station.NOAA.NDBC:LBSF1:1,2016-09-14T08:00:00Z,25.2140,-80.4320,1.5,20.89,1111122 